Agenzia del porto Bunker Vibo
  Sponsor: PAGLIARINI INTERNATIONAL BOAT 

OBSERVATIONS
LATEST DOWNLOAD: 2018/12/15 10:40:36

STATION LICJ/164050
Saturday, 15 December 2018, 09:20 UTC

pressure 1014 hPa
temperature 14 °C
dewpoint 9 °C
humidity 71.8%
wind NNW-18 knots
visibility Good
sky Scattered clouds
weather -

MAIN LOCATIONS

HOURLY DATA

HOTEL RESERVATION

WEATHER REPORT WEATHER REPORT

METEOMAR METEOMAR

WEATHER CHARTS WEATHER CHARTS

WEBCAM WEBCAM



 PALERMO-PUNTARAISI
COUNTRY
ITALY
     LAT
38.18 N
    LON
13.10 E
    ELEV
34 m
     REGION
Sicilia
     PROVINCE
Palermo
     ZONE
Southern

LATEST 24 HOURS ( 49 OBSERVATIONS )
Observation time
UTC
temperature
humidity
%
pressure
hPa
  wind
knots
2018/12/15 09:2014 711014NNW-18
2018/12/15 08:5014 671014NNW-18
2018/12/15 08:2014 671013N-19
2018/12/15 07:5014 711013N-20
2018/12/15 07:2014 761012NNW-21
2018/12/15 06:5014 821011NNW-20
2018/12/15 06:2014 761011N-12
2018/12/15 05:5014 821011NNW-14
2018/12/15 05:2014 871010NNW-18
2018/12/15 04:5014 871010NNW-17
2018/12/15 04:2014 761010VAR-6
2018/12/15 03:5014 821009N-12
2018/12/15 03:2014 821009NNE-10
2018/12/15 02:5015 821009NNW-9
2018/12/15 02:2013 821009S-4
2018/12/15 01:5013 761009SSW-4
2018/12/15 01:2012 811009SSE-5
2018/12/15 00:5013 821009WSW-3
2018/12/15 00:2014 761008WSW-6
2018/12/14 23:5014 821008VAR-3
2018/12/14 23:2013 821008SW-8
2018/12/14 22:5014 711008SW-8
2018/12/14 22:2014 711008SW-10
2018/12/14 21:5013 761008SSW-8
2018/12/14 21:2013 761008SSW-8
2018/12/14 20:5014 711008SW-8
2018/12/14 20:2014 671007VAR-4
2018/12/14 19:5014 671007SSE-9
2018/12/14 19:2014 671008S-11
2018/12/14 18:5016 821007NNE-11
2018/12/14 18:2016 821007NE-7
2018/12/14 17:5015 671007ENE-7
2018/12/14 17:2016 631007E-8
2018/12/14 16:5016 511007ENE-4
2018/12/14 16:2017 481006SE-3
2018/12/14 15:5017 511006VAR-2
2018/12/14 15:2017 631006NNW-5
2018/12/14 14:5018 421006VAR-4
2018/12/14 14:2017 631006NE-3
2018/12/14 13:5017 551006E-5
2018/12/14 13:2018 421006VAR-2
2018/12/14 12:5018 451006S-9
2018/12/14 12:2018 481006S-10
2018/12/14 11:5018 481006S-8
2018/12/14 11:2018 481006S-17
2018/12/14 10:5018 521006SSW-18
2018/12/14 10:2018 481006S-21
2018/12/14 09:5018 481006S-24
2018/12/14 09:2018 521006S-20
( Previous data )

ARCHIVE   LOCAL FORECASTS   CLIMATE AVERAGES